Time,TemperatureF,DewpointF,PressureIn,WindDirection,WindDirectionDegrees,WindSpeedMPH,WindSpeedGustMPH,Humidity,HourlyPrecipIn,Conditions,Clouds,dailyrainin,SolarRadiationWatts/m^2,SoftwareType,DateUTC
2013-07-14 00:03:00,65.0,58.3,29.91,ESE,123,1.0,1.0,79,0.00,,,0.00,0,Wunderground v.1.15,2013-07-14 07:03:00,
2013-07-14 00:09:00,65.0,58.3,29.91,SE,126,0.0,0.0,79,0.00,,,0.00,0,Wunderground v.1.15,2013-07-14 07:09:00,
2013-07-14 00:14:00,65.0,58.7,29.91,SE,126,0.0,0.0,80,0.00,,,0.00,0,Wunderground v.1.15,2013-07-14 07:14:00,
2013-07-14 00:20:00,65.0,58.0,29.90,SE,126,0.0,0.0,78,0.00,,,0.00,0,Wunderground v.1.15,2013-07-14 07:20:00,
2013-07-14 00:26:00,64.4,57.7,29.90,SE,125,0.0,1.0,79,0.00,,,0.00,0,Wunderground v.1.15,2013-07-14 07:26:00,
2013-07-14 00:31:00,64.0,57.7,29.90,ESE,121,1.0,2.0,80,0.00,,,0.00,0,Wunderground v.1.15,2013-07-14 07:31:00,
2013-07-14 00:36:00,63.8,57.5,29.90,ESE,121,1.0,2.0,80,0.00,,,0.00,0,Wunderground v.1.15,2013-07-14 07:36:00,
2013-07-14 00:42:00,64.0,57.7,29.90,ESE,121,0.0,1.0,80,0.00,,,0.00,0,Wunderground v.1.15,2013-07-14 07:42:00,
2013-07-14 00:48:00,63.9,57.6,29.90,ESE,123,0.0,1.0,80,0.00,,,0.00,0,Wunderground v.1.15,2013-07-14 07:48:00,
2013-07-14 00:54:00,63.5,57.2,29.90,ESE,123,1.0,2.0,80,0.00,,,0.00,0,Wunderground v.1.15,2013-07-14 07:54:00,
2013-07-14 00:59:00,63.3,57.4,29.90,ESE,123,1.0,1.0,81,0.00,,,0.00,0,Wunderground v.1.15,2013-07-14 07:59:00,
2013-07-14 01:05:00,63.1,57.2,29.90,SE,130,2.0,2.0,81,0.00,,,0.00,0,Wunderground v.1.15,2013-07-14 08:05:00,
2013-07-14 01:10:00,63.0,57.1,29.90,ESE,121,2.0,2.0,81,0.00,,,0.00,0,Wunderground v.1.15,2013-07-14 08:10:00,
2013-07-14 01:16:00,62.9,57.0,29.90,SE,136,2.0,2.0,81,0.00,,,0.00,0,Wunderground v.1.15,2013-07-14 08:16:00,
2013-07-14 01:22:00,62.9,57.0,29.90,ESE,121,1.0,2.0,81,0.00,,,0.00,0,Wunderground v.1.15,2013-07-14 08:22:00,
2013-07-14 01:27:00,63.0,57.1,29.90,ESE,123,1.0,2.0,81,0.00,,,0.00,0,Wunderground v.1.15,2013-07-14 08:27:00,
2013-07-14 01:33:00,62.9,57.0,29.89,ESE,123,0.0,1.0,81,0.00,,,0.00,0,Wunderground v.1.15,2013-07-14 08:33:00,
2013-07-14 01:39:00,63.0,57.1,29.89,ESE,123,0.0,1.0,81,0.00,,,0.00,0,Wunderground v.1.15,2013-07-14 08:39:00,
2013-07-14 01:44:00,62.9,57.0,29.89,ESE,123,0.0,2.0,81,0.00,,,0.00,0,Wunderground v.1.15,2013-07-14 08:44:00,
2013-07-14 01:50:00,62.6,56.7,29.88,SE,135,1.0,1.0,81,0.00,,,0.00,0,Wunderground v.1.15,2013-07-14 08:50:00,
2013-07-14 01:55:00,62.6,56.7,29.88,SE,124,0.0,2.0,81,0.00,,,0.00,0,Wunderground v.1.15,2013-07-14 08:55:00,
2013-07-14 02:01:00,62.4,56.8,29.89,SE,127,0.0,1.0,82,0.00,,,0.00,0,Wunderground v.1.15,2013-07-14 09:01:00,
2013-07-14 02:07:00,62.1,56.5,29.89,SE,129,1.0,1.0,82,0.00,,,0.00,0,Wunderground v.1.15,2013-07-14 09:07:00,
2013-07-14 02:12:00,61.9,56.7,29.89,ESE,122,1.0,2.0,83,0.00,,,0.00,0,Wunderground v.1.15,2013-07-14 09:12:00,
2013-07-14 02:18:00,61.8,56.2,29.89,SE,128,1.0,2.0,82,0.00,,,0.00,0,Wunderground v.1.15,2013-07-14 09:18:00,
2013-07-14 02:23:00,61.6,56.4,29.89,ESE,122,2.0,2.0,83,0.00,,,0.00,0,Wunderground v.1.15,2013-07-14 09:23:00,
2013-07-14 02:29:00,61.5,56.6,29.89,SE,136,2.0,2.0,84,0.00,,,0.00,0,Wunderground v.1.15,2013-07-14 09:29:00,
2013-07-14 02:35:00,61.6,56.7,29.89,SE,131,1.0,2.0,84,0.00,,,0.00,0,Wunderground v.1.15,2013-07-14 09:35:00,
2013-07-14 02:40:00,61.9,57.0,29.89,SE,131,0.0,0.0,84,0.00,,,0.00,0,Wunderground v.1.15,2013-07-14 09:40:00,
2013-07-14 02:46:00,61.9,56.7,29.89,SE,131,0.0,1.0,83,0.00,,,0.00,0,Wunderground v.1.15,2013-07-14 09:46:00,
2013-07-14 02:52:00,61.9,56.7,29.88,SE,131,0.0,1.0,83,0.00,,,0.00,0,Wunderground v.1.15,2013-07-14 09:52:00,
2013-07-14 02:57:00,61.5,56.3,29.89,SE,126,0.0,2.0,83,0.00,,,0.00,0,Wunderground v.1.15,2013-07-14 09:57:00,
2013-07-14 03:03:00,61.3,56.8,29.89,ESE,118,0.0,1.0,85,0.00,,,0.00,0,Wunderground v.1.15,2013-07-14 10:03:00,
2013-07-14 03:09:00,61.5,56.9,29.89,ESE,117,0.0,0.0,85,0.00,,,0.00,0,Wunderground v.1.15,2013-07-14 10:09:00,
2013-07-14 03:15:00,61.6,57.0,29.89,SE,130,0.0,0.0,85,0.00,,,0.00,0,Wunderground v.1.15,2013-07-14 10:15:00,
2013-07-14 03:20:00,61.7,57.1,29.89,SE,129,0.0,0.0,85,0.00,,,0.00,0,Wunderground v.1.15,2013-07-14 10:20:00,
2013-07-14 03:26:00,61.8,56.9,29.89,SE,129,0.0,1.0,84,0.00,,,0.00,0,Wunderground v.1.15,2013-07-14 10:26:00,
2013-07-14 03:32:00,61.8,56.9,29.89,SE,129,0.0,1.0,84,0.00,,,0.00,0,Wunderground v.1.15,2013-07-14 10:32:00,
2013-07-14 03:38:00,61.7,56.8,29.89,SE,126,0.0,2.0,84,0.00,,,0.00,0,Wunderground v.1.15,2013-07-14 10:38:00,
2013-07-14 03:44:00,62.2,57.3,29.89,SE,126,0.0,0.0,84,0.00,,,0.00,0,Wunderground v.1.15,2013-07-14 10:44:00,
2013-07-14 03:49:00,62.1,57.2,29.89,ESE,121,0.0,0.0,84,0.00,,,0.00,0,Wunderground v.1.15,2013-07-14 10:49:00,
2013-07-14 03:55:00,62.5,57.6,29.88,ESE,121,0.0,1.0,84,0.00,,,0.00,0,Wunderground v.1.15,2013-07-14 10:55:00,
2013-07-14 04:01:00,62.8,57.9,29.88,ESE,121,0.0,0.0,84,0.00,,,0.00,0,Wunderground v.1.15,2013-07-14 11:01:00,
2013-07-14 04:06:00,63.3,58.4,29.88,ESE,121,0.0,0.0,84,0.00,,,0.00,0,Wunderground v.1.15,2013-07-14 11:06:00,
2013-07-14 04:12:00,63.5,58.2,29.88,ESE,121,0.0,0.0,83,0.00,,,0.00,0,Wunderground v.1.15,2013-07-14 11:12:00,
2013-07-14 04:18:00,63.6,58.3,29.89,ESE,121,0.0,0.0,83,0.00,,,0.00,0,Wunderground v.1.15,2013-07-14 11:18:00,
2013-07-14 04:24:00,63.8,58.2,29.89,ESE,121,0.0,0.0,82,0.00,,,0.00,0,Wunderground v.1.15,2013-07-14 11:24:00,
2013-07-14 04:29:00,64.1,58.5,29.89,ESE,121,0.0,0.0,82,0.00,,,0.00,0,Wunderground v.1.15,2013-07-14 11:29:00,
2013-07-14 04:35:00,64.3,58.7,29.89,SE,146,0.0,0.0,82,0.00,,,0.00,0,Wunderground v.1.15,2013-07-14 11:35:00,
2013-07-14 04:41:00,64.5,58.9,29.89,SSW,196,0.0,0.0,82,0.00,,,0.00,0,Wunderground v.1.15,2013-07-14 11:41:00,
2013-07-14 04:46:00,64.7,59.1,29.89,SSW,196,0.0,1.0,82,0.00,,,0.00,0,Wunderground v.1.15,2013-07-14 11:46:00,
2013-07-14 04:51:00,64.9,59.9,29.89,SSW,196,0.0,0.0,84,0.00,,,0.00,0,Wunderground v.1.15,2013-07-14 11:51:00,
2013-07-14 04:57:00,65.3,60.7,29.89,SSW,196,0.0,1.0,85,0.00,,,0.00,0,Wunderground v.1.15,2013-07-14 11:57:00,
2013-07-14 05:03:00,65.3,61.0,29.90,SSW,196,0.0,0.0,86,0.00,,,0.00,0,Wunderground v.1.15,2013-07-14 12:03:00,
2013-07-14 05:09:00,64.9,60.9,29.89,WNW,301,0.0,0.0,87,0.00,,,0.00,0,Wunderground v.1.15,2013-07-14 12:09:00,
2013-07-14 05:14:00,64.7,61.1,29.90,NNW,333,0.0,1.0,88,0.00,,,0.00,0,Wunderground v.1.15,2013-07-14 12:14:00,
2013-07-14 05:20:00,64.7,61.4,29.89,NNW,332,0.0,0.0,89,0.00,,,0.00,0,Wunderground v.1.15,2013-07-14 12:20:00,
2013-07-14 05:25:00,64.7,61.4,29.89,NNW,332,0.0,1.0,89,0.00,,,0.00,0,Wunderground v.1.15,2013-07-14 12:25:00,
2013-07-14 05:32:00,64.7,61.4,29.90,NW,315,0.0,0.0,89,0.00,,,0.00,0,Wunderground v.1.15,2013-07-14 12:32:00,
2013-07-14 05:38:00,65.0,61.7,29.90,NW,315,0.0,0.0,89,0.00,,,0.00,0,Wunderground v.1.15,2013-07-14 12:38:00,
2013-07-14 05:44:00,65.1,61.5,29.90,NW,315,0.0,0.0,88,0.00,,,0.00,0,Wunderground v.1.15,2013-07-14 12:44:00,
2013-07-14 05:49:00,65.1,61.5,29.90,NW,315,0.0,0.0,88,0.00,,,0.00,0,Wunderground v.1.15,2013-07-14 12:49:00,
2013-07-14 05:55:00,65.3,61.7,29.90,NW,315,0.0,1.0,88,0.00,,,0.00,0,Wunderground v.1.15,2013-07-14 12:55:00,
2013-07-14 06:01:00,65.4,61.4,29.90,NW,315,0.0,0.0,87,0.00,,,0.00,5,Wunderground v.1.15,2013-07-14 13:01:00,
2013-07-14 06:07:00,65.4,61.4,29.90,ENE,69,0.0,0.0,87,0.00,,,0.00,7,Wunderground v.1.15,2013-07-14 13:07:00,
2013-07-14 06:13:00,65.3,61.3,29.90,ENE,65,0.0,0.0,87,0.00,,,0.00,12,Wunderground v.1.15,2013-07-14 13:13:00,
2013-07-14 06:18:00,65.4,61.4,29.90,East,87,0.0,0.0,87,0.00,,,0.00,14,Wunderground v.1.15,2013-07-14 13:18:00,
2013-07-14 06:24:00,65.2,61.2,29.90,SE,124,0.0,2.0,87,0.00,,,0.00,19,Wunderground v.1.15,2013-07-14 13:24:00,
2013-07-14 06:30:00,65.1,61.5,29.91,SSE,148,1.0,1.0,88,0.00,,,0.00,23,Wunderground v.1.15,2013-07-14 13:30:00,
2013-07-14 06:35:00,65.2,61.6,29.90,SE,136,0.0,1.0,88,0.00,,,0.00,26,Wunderground v.1.15,2013-07-14 13:35:00,
2013-07-14 06:41:00,65.5,61.5,29.91,SE,136,0.0,0.0,87,0.00,,,0.00,26,Wunderground v.1.15,2013-07-14 13:41:00,
2013-07-14 06:47:00,65.6,61.6,29.91,SE,136,0.0,0.0,87,0.00,,,0.00,32,Wunderground v.1.15,2013-07-14 13:47:00,
2013-07-14 06:52:00,65.8,61.8,29.91,SE,136,0.0,0.0,87,0.00,,,0.00,39,Wunderground v.1.15,2013-07-14 13:52:00,
2013-07-14 06:58:00,66.0,61.7,29.91,SE,136,0.0,0.0,86,0.00,,,0.00,44,Wunderground v.1.15,2013-07-14 13:58:00,
2013-07-14 07:04:00,65.8,61.8,29.91,SE,136,0.0,0.0,87,0.00,,,0.00,56,Wunderground v.1.15,2013-07-14 14:04:00,
2013-07-14 07:09:00,65.9,61.9,29.91,SE,136,0.0,0.0,87,0.00,,,0.00,63,Wunderground v.1.15,2013-07-14 14:09:00,
2013-07-14 07:14:00,66.0,62.0,29.91,SE,136,0.0,0.0,87,0.00,,,0.00,77,Wunderground v.1.15,2013-07-14 14:14:00,
2013-07-14 07:19:00,66.1,61.8,29.91,WNW,298,0.0,1.0,86,0.00,,,0.00,70,Wunderground v.1.15,2013-07-14 14:19:00,
2013-07-14 07:25:00,66.3,62.0,29.91,WNW,283,0.0,1.0,86,0.00,,,0.00,76,Wunderground v.1.15,2013-07-14 14:25:00,
2013-07-14 07:32:00,66.2,61.9,29.91,WNW,283,0.0,0.0,86,0.00,,,0.00,97,Wunderground v.1.15,2013-07-14 14:32:00,
2013-07-14 07:38:00,66.4,62.1,29.91,WNW,283,0.0,0.0,86,0.00,,,0.00,74,Wunderground v.1.15,2013-07-14 14:38:00,
2013-07-14 07:46:00,67.0,62.3,29.91,South,173,0.0,1.0,85,0.00,,,0.00,290,Wunderground v.1.15,2013-07-14 14:46:00,
2013-07-14 07:51:00,67.2,62.2,29.91,North,355,0.0,2.0,84,0.00,,,0.00,334,Wunderground v.1.15,2013-07-14 14:51:00,
2013-07-14 07:57:00,67.1,62.1,29.91,NW,325,1.0,2.0,84,0.00,,,0.00,109,Wunderground v.1.15,2013-07-14 14:57:00,
2013-07-14 08:02:00,67.1,62.1,29.91,NW,309,1.0,2.0,84,0.00,,,0.00,118,Wunderground v.1.15,2013-07-14 15:02:00,
2013-07-14 08:08:00,67.3,62.3,29.91,West,281,1.0,2.0,84,0.00,,,0.00,128,Wunderground v.1.15,2013-07-14 15:08:00,
2013-07-14 08:14:00,68.0,62.6,29.92,SW,227,0.0,1.0,83,0.00,,,0.00,178,Wunderground v.1.15,2013-07-14 15:14:00,
2013-07-14 08:20:00,68.3,62.9,29.92,SW,229,0.0,1.0,83,0.00,,,0.00,316,Wunderground v.1.15,2013-07-14 15:20:00,
2013-07-14 08:26:00,68.5,62.8,29.92,SSW,203,1.0,3.0,82,0.00,,,0.00,236,Wunderground v.1.15,2013-07-14 15:26:00,
2013-07-14 08:32:00,69.0,62.9,29.92,SSW,195,2.0,3.0,81,0.00,,,0.00,403,Wunderground v.1.15,2013-07-14 15:32:00,
2013-07-14 08:38:00,69.0,62.9,29.92,NW,319,1.0,5.0,81,0.00,,,0.00,396,Wunderground v.1.15,2013-07-14 15:38:00,
2013-07-14 08:44:00,69.7,63.3,29.92,SSW,197,2.0,5.0,80,0.00,,,0.00,265,Wunderground v.1.15,2013-07-14 15:44:00,
2013-07-14 08:49:00,69.9,63.1,29.92,SW,223,2.0,2.0,79,0.00,,,0.00,336,Wunderground v.1.15,2013-07-14 15:49:00,
2013-07-14 08:55:00,70.3,63.5,29.92,SSW,200,2.0,3.0,79,0.00,,,0.00,253,Wunderground v.1.15,2013-07-14 15:55:00,
2013-07-14 09:00:00,70.5,63.3,29.92,SW,225,2.0,2.0,78,0.00,,,0.00,221,Wunderground v.1.15,2013-07-14 16:00:00,
2013-07-14 09:06:00,70.6,63.4,29.92,SW,221,2.0,5.0,78,0.00,,,0.00,206,Wunderground v.1.15,2013-07-14 16:06:00,
2013-07-14 09:12:00,70.4,63.2,29.92,WSW,238,2.0,2.0,78,0.00,,,0.00,181,Wunderground v.1.15,2013-07-14 16:12:00,
2013-07-14 09:18:00,70.7,63.1,29.92,WSW,250,1.0,3.0,77,0.00,,,0.00,172,Wunderground v.1.15,2013-07-14 16:18:00,
2013-07-14 09:24:00,70.1,62.9,29.92,SSW,199,2.0,5.0,78,0.00,,,0.00,162,Wunderground v.1.15,2013-07-14 16:24:00,
2013-07-14 09:30:00,69.9,63.1,29.91,WSW,246,2.0,2.0,79,0.00,,,0.00,167,Wunderground v.1.15,2013-07-14 16:30:00,
2013-07-14 09:35:00,69.9,62.7,29.91,WSW,240,2.0,4.0,78,0.00,,,0.00,181,Wunderground v.1.15,2013-07-14 16:35:00,
2013-07-14 09:41:00,70.5,63.3,29.91,WSW,245,2.0,3.0,78,0.00,,,0.00,199,Wunderground v.1.15,2013-07-14 16:41:00,
2013-07-14 09:46:00,70.8,63.2,29.91,West,276,2.0,4.0,77,0.00,,,0.00,234,Wunderground v.1.15,2013-07-14 16:46:00,
2013-07-14 09:52:00,71.6,63.6,29.91,SSW,209,2.0,3.0,76,0.00,,,0.00,306,Wunderground v.1.15,2013-07-14 16:52:00,
2013-07-14 09:57:00,72.1,63.7,29.91,SSW,198,2.0,4.0,75,0.00,,,0.00,301,Wunderground v.1.15,2013-07-14 16:57:00,
2013-07-14 10:03:00,72.3,63.5,29.92,SSW,200,2.0,3.0,74,0.00,,,0.00,330,Wunderground v.1.15,2013-07-14 17:03:00,
2013-07-14 10:08:00,72.9,64.1,29.91,SW,223,2.0,4.0,74,0.00,,,0.00,413,Wunderground v.1.15,2013-07-14 17:08:00,
2013-07-14 10:14:00,73.4,63.8,29.91,West,267,2.0,4.0,72,0.00,,,0.00,367,Wunderground v.1.15,2013-07-14 17:14:00,
2013-07-14 10:19:00,73.7,63.7,29.91,SSE,153,1.0,1.0,71,0.00,,,0.00,290,Wunderground v.1.15,2013-07-14 17:19:00,
2013-07-14 10:25:00,73.7,63.7,29.91,SW,232,1.0,3.0,71,0.00,,,0.00,302,Wunderground v.1.15,2013-07-14 17:25:00,
2013-07-14 10:30:00,74.1,64.1,29.91,NW,306,1.0,3.0,71,0.00,,,0.00,846,Wunderground v.1.15,2013-07-14 17:30:00,
2013-07-14 10:36:00,75.1,64.2,29.91,SW,221,2.0,5.0,69,0.00,,,0.00,657,Wunderground v.1.15,2013-07-14 17:36:00,
2013-07-14 10:41:00,74.9,63.6,29.90,WNW,294,4.0,4.0,68,0.00,,,0.00,559,Wunderground v.1.15,2013-07-14 17:41:00,
2013-07-14 10:48:00,75.5,64.2,29.90,West,259,3.0,4.0,68,0.00,,,0.00,557,Wunderground v.1.15,2013-07-14 17:48:00,
2013-07-14 10:54:00,76.8,64.1,29.90,West,265,2.0,3.0,65,0.00,,,0.00,874,Wunderground v.1.15,2013-07-14 17:54:00,
2013-07-14 10:59:00,77.8,64.6,29.90,South,175,2.0,2.0,64,0.00,,,0.00,928,Wunderground v.1.15,2013-07-14 17:59:00,
2013-07-14 11:07:00,76.6,64.0,29.90,ESE,109,2.0,5.0,65,0.00,,,0.00,765,Wunderground v.1.15,2013-07-14 18:07:00,
2013-07-14 11:13:00,78.8,64.7,29.90,SSW,207,3.0,8.0,62,0.00,,,0.00,826,Wunderground v.1.15,2013-07-14 18:13:00,
2013-07-14 11:19:00,79.4,64.3,29.90,West,271,3.0,5.0,60,0.00,,,0.00,830,Wunderground v.1.15,2013-07-14 18:19:00,
2013-07-14 11:25:00,80.0,64.4,29.90,South,175,3.0,5.0,59,0.00,,,0.00,837,Wunderground v.1.15,2013-07-14 18:25:00,
2013-07-14 11:31:00,79.7,64.1,29.90,WNW,296,3.0,4.0,59,0.00,,,0.00,840,Wunderground v.1.15,2013-07-14 18:31:00,
2013-07-14 11:36:00,80.2,64.1,29.90,SSE,157,4.0,7.0,58,0.00,,,0.00,847,Wunderground v.1.15,2013-07-14 18:36:00,
2013-07-14 11:42:00,81.2,64.0,29.90,South,182,5.0,5.0,56,0.00,,,0.00,846,Wunderground v.1.15,2013-07-14 18:42:00,
2013-07-14 11:48:00,81.5,64.3,29.89,SE,127,3.0,5.0,56,0.00,,,0.00,865,Wunderground v.1.15,2013-07-14 18:48:00,
2013-07-14 11:53:00,81.8,64.1,29.90,WNW,288,3.0,5.0,55,0.00,,,0.00,877,Wunderground v.1.15,2013-07-14 18:53:00,
2013-07-14 11:58:00,81.4,63.2,29.89,WNW,302,4.0,8.0,54,0.00,,,0.00,902,Wunderground v.1.15,2013-07-14 18:58:00,
2013-07-14 12:04:00,82.2,63.4,29.89,SW,226,5.0,6.0,53,0.00,,,0.00,914,Wunderground v.1.15,2013-07-14 19:04:00,
2013-07-14 12:09:00,82.1,62.7,29.89,WSW,254,5.0,6.0,52,0.00,,,0.00,527,Wunderground v.1.15,2013-07-14 19:09:00,
2013-07-14 12:15:00,82.1,62.7,29.89,SW,227,4.0,7.0,52,0.00,,,0.00,640,Wunderground v.1.15,2013-07-14 19:15:00,
2013-07-14 12:22:00,82.0,62.1,29.89,SSW,195,4.0,6.0,51,0.00,,,0.00,439,Wunderground v.1.15,2013-07-14 19:22:00,
2013-07-14 12:27:00,82.0,62.1,29.89,SW,226,4.0,6.0,51,0.00,,,0.00,677,Wunderground v.1.15,2013-07-14 19:27:00,
2013-07-14 12:32:00,82.7,62.7,29.89,WSW,244,4.0,5.0,51,0.00,,,0.00,677,Wunderground v.1.15,2013-07-14 19:32:00,
2013-07-14 12:38:00,83.0,61.9,29.88,West,280,4.0,7.0,49,0.00,,,0.00,895,Wunderground v.1.15,2013-07-14 19:38:00,
2013-07-14 12:44:00,83.9,62.7,29.88,South,171,4.0,6.0,49,0.00,,,0.00,895,Wunderground v.1.15,2013-07-14 19:44:00,
2013-07-14 12:50:00,84.1,62.9,29.88,West,279,4.0,5.0,49,0.00,,,0.00,893,Wunderground v.1.15,2013-07-14 19:50:00,
2013-07-14 12:55:00,83.9,61.5,29.87,WNW,285,4.0,9.0,47,0.00,,,0.00,893,Wunderground v.1.15,2013-07-14 19:55:00,
2013-07-14 13:01:00,83.4,59.8,29.87,NNW,329,4.0,5.0,45,0.00,,,0.00,900,Wunderground v.1.15,2013-07-14 20:01:00,
2013-07-14 13:07:00,84.5,62.1,29.87,SSE,150,5.0,11.0,47,0.00,,,0.00,898,Wunderground v.1.15,2013-07-14 20:07:00,
2013-07-14 13:13:00,85.4,62.3,29.87,SW,214,5.0,7.0,46,0.00,,,0.00,893,Wunderground v.1.15,2013-07-14 20:13:00,
2013-07-14 13:19:00,85.9,62.1,29.87,SE,136,4.0,4.0,45,0.00,,,0.00,895,Wunderground v.1.15,2013-07-14 20:19:00,
2013-07-14 13:25:00,85.7,62.5,29.87,West,276,5.0,8.0,46,0.00,,,0.00,891,Wunderground v.1.15,2013-07-14 20:25:00,
2013-07-14 13:31:00,85.6,63.1,29.87,SSW,197,3.0,8.0,47,0.00,,,0.00,888,Wunderground v.1.15,2013-07-14 20:31:00,
2013-07-14 13:37:00,86.5,62.6,29.87,SW,234,4.0,8.0,45,0.00,,,0.00,881,Wunderground v.1.15,2013-07-14 20:37:00,
2013-07-14 13:43:00,86.5,62.6,29.86,SW,228,4.0,7.0,45,0.00,,,0.00,875,Wunderground v.1.15,2013-07-14 20:43:00,
2013-07-14 13:48:00,86.2,63.0,29.86,WSW,250,4.0,8.0,46,0.00,,,0.00,868,Wunderground v.1.15,2013-07-14 20:48:00,
2013-07-14 13:54:00,86.9,63.6,29.86,SSE,167,4.0,7.0,46,0.00,,,0.00,863,Wunderground v.1.15,2013-07-14 20:54:00,
2013-07-14 14:00:00,86.8,62.3,29.86,SW,236,5.0,9.0,44,0.00,,,0.00,863,Wunderground v.1.15,2013-07-14 21:00:00,
2013-07-14 14:06:00,86.5,61.3,29.86,South,191,6.0,9.0,43,0.00,,,0.00,856,Wunderground v.1.15,2013-07-14 21:06:00,
2013-07-14 14:14:00,86.5,61.3,29.86,NW,312,5.0,7.0,43,0.00,,,0.00,840,Wunderground v.1.15,2013-07-14 21:14:00,
2013-07-14 14:21:00,86.6,61.4,29.86,WSW,242,5.0,5.0,43,0.00,,,0.00,838,Wunderground v.1.15,2013-07-14 21:21:00,
2013-07-14 14:26:00,86.8,61.6,29.85,SW,216,6.0,10.0,43,0.00,,,0.00,844,Wunderground v.1.15,2013-07-14 21:26:00,
2013-07-14 14:31:00,86.6,60.8,29.85,South,175,6.0,6.0,42,0.00,,,0.00,809,Wunderground v.1.15,2013-07-14 21:31:00,
2013-07-14 14:37:00,86.6,60.1,29.85,West,268,6.0,6.0,41,0.00,,,0.00,814,Wunderground v.1.15,2013-07-14 21:37:00,
2013-07-14 14:42:00,86.3,60.5,29.85,West,263,5.0,6.0,42,0.00,,,0.00,805,Wunderground v.1.15,2013-07-14 21:42:00,
2013-07-14 14:48:00,86.8,60.3,29.85,SSW,200,4.0,6.0,41,0.00,,,0.00,809,Wunderground v.1.15,2013-07-14 21:48:00,
2013-07-14 14:53:00,87.0,59.8,29.85,SSW,213,5.0,9.0,40,0.00,,,0.00,810,Wunderground v.1.15,2013-07-14 21:53:00,
2013-07-14 14:59:00,87.3,57.8,29.85,SSW,201,6.0,6.0,37,0.00,,,0.00,812,Wunderground v.1.15,2013-07-14 21:59:00,
2013-07-14 15:05:00,87.9,58.4,29.84,SW,225,5.0,9.0,37,0.00,,,0.00,482,Wunderground v.1.15,2013-07-14 22:05:00,
2013-07-14 15:11:00,86.5,56.4,29.84,WSW,250,5.0,8.0,36,0.00,,,0.00,429,Wunderground v.1.15,2013-07-14 22:11:00,
2013-07-14 15:17:00,87.5,57.3,29.84,WSW,248,5.0,8.0,36,0.00,,,0.00,657,Wunderground v.1.15,2013-07-14 22:17:00,
2013-07-14 15:23:00,88.1,56.2,29.84,SSE,148,4.0,10.0,34,0.00,,,0.00,698,Wunderground v.1.15,2013-07-14 22:23:00,
2013-07-14 15:29:00,88.1,57.0,29.83,WNW,284,5.0,5.0,35,0.00,,,0.00,768,Wunderground v.1.15,2013-07-14 22:29:00,
2013-07-14 15:34:00,87.5,56.5,29.83,SSW,202,6.0,10.0,35,0.00,,,0.00,738,Wunderground v.1.15,2013-07-14 22:34:00,
2013-07-14 15:41:00,87.5,57.3,29.83,West,277,6.0,7.0,36,0.00,,,0.00,705,Wunderground v.1.15,2013-07-14 22:41:00,
2013-07-14 15:47:00,88.1,57.0,29.83,SSW,210,5.0,10.0,35,0.00,,,0.00,684,Wunderground v.1.15,2013-07-14 22:47:00,
2013-07-14 15:53:00,87.8,57.5,29.82,SW,232,5.0,7.0,36,0.00,,,0.00,668,Wunderground v.1.15,2013-07-14 22:53:00,
2013-07-14 15:58:00,87.7,58.2,29.82,SSW,213,5.0,9.0,37,0.00,,,0.00,654,Wunderground v.1.15,2013-07-14 22:58:00,
2013-07-14 16:04:00,87.4,58.7,29.82,WSW,243,5.0,8.0,38,0.00,,,0.00,640,Wunderground v.1.15,2013-07-14 23:04:00,
2013-07-14 16:09:00,87.6,58.9,29.82,WSW,240,6.0,6.0,38,0.00,,,0.00,624,Wunderground v.1.15,2013-07-14 23:09:00,
2013-07-14 16:15:00,87.9,58.4,29.82,SW,230,6.0,8.0,37,0.00,,,0.00,610,Wunderground v.1.15,2013-07-14 23:15:00,
2013-07-14 16:21:00,87.3,58.6,29.82,SW,225,5.0,5.0,38,0.00,,,0.00,596,Wunderground v.1.15,2013-07-14 23:21:00,
2013-07-14 16:26:00,87.6,58.9,29.82,SSW,200,5.0,7.0,38,0.00,,,0.00,582,Wunderground v.1.15,2013-07-14 23:26:00,
2013-07-14 16:32:00,86.8,58.1,29.82,SW,223,5.0,10.0,38,0.00,,,0.00,561,Wunderground v.1.15,2013-07-14 23:32:00,
2013-07-14 16:38:00,87.0,58.3,29.82,SSW,212,5.0,10.0,38,0.00,,,0.00,543,Wunderground v.1.15,2013-07-14 23:38:00,
2013-07-14 16:43:00,86.0,57.4,29.82,SW,224,7.0,11.0,38,0.00,,,0.00,526,Wunderground v.1.15,2013-07-14 23:43:00,
2013-07-14 16:49:00,85.8,58.0,29.82,SW,222,7.0,9.0,39,0.00,,,0.00,510,Wunderground v.1.15,2013-07-14 23:49:00,
2013-07-14 16:55:00,86.2,58.3,29.82,SSW,205,5.0,9.0,39,0.00,,,0.00,490,Wunderground v.1.15,2013-07-14 23:55:00,
2013-07-14 17:01:00,85.5,57.7,29.81,SW,227,5.0,8.0,39,0.00,,,0.00,478,Wunderground v.1.15,2013-07-15 00:01:00,
2013-07-14 17:06:00,85.7,57.2,29.81,SW,221,5.0,8.0,38,0.00,,,0.00,459,Wunderground v.1.15,2013-07-15 00:06:00,
2013-07-14 17:12:00,85.2,58.2,29.81,SSW,201,6.0,9.0,40,0.00,,,0.00,438,Wunderground v.1.15,2013-07-15 00:12:00,
2013-07-14 17:18:00,85.0,58.0,29.81,West,261,6.0,9.0,40,0.00,,,0.00,418,Wunderground v.1.15,2013-07-15 00:18:00,
2013-07-14 17:24:00,84.7,58.4,29.81,WSW,250,6.0,8.0,41,0.00,,,0.00,404,Wunderground v.1.15,2013-07-15 00:24:00,
2013-07-14 17:30:00,84.5,60.2,29.81,SSW,199,5.0,6.0,44,0.00,,,0.00,388,Wunderground v.1.15,2013-07-15 00:30:00,
2013-07-14 17:36:00,84.3,60.0,29.81,WSW,238,5.0,7.0,44,0.00,,,0.00,380,Wunderground v.1.15,2013-07-15 00:36:00,
2013-07-14 17:41:00,84.0,59.7,29.81,West,273,5.0,8.0,44,0.00,,,0.00,362,Wunderground v.1.15,2013-07-15 00:41:00,
2013-07-14 17:47:00,83.4,59.8,29.81,WSW,238,5.0,9.0,45,0.00,,,0.00,339,Wunderground v.1.15,2013-07-15 00:47:00,
2013-07-14 17:53:00,83.1,59.6,29.81,SSW,194,4.0,7.0,45,0.00,,,0.00,320,Wunderground v.1.15,2013-07-15 00:53:00,
2013-07-14 17:59:00,82.8,59.3,29.81,SW,231,3.0,7.0,45,0.00,,,0.00,301,Wunderground v.1.15,2013-07-15 00:59:00,
2013-07-14 18:05:00,82.6,59.1,29.81,West,267,4.0,10.0,45,0.00,,,0.00,281,Wunderground v.1.15,2013-07-15 01:05:00,
2013-07-14 18:11:00,82.6,57.8,29.81,SW,234,4.0,11.0,43,0.00,,,0.00,264,Wunderground v.1.15,2013-07-15 01:11:00,
2013-07-14 18:16:00,82.1,58.7,29.81,WSW,237,5.0,11.0,45,0.00,,,0.00,248,Wunderground v.1.15,2013-07-15 01:16:00,
2013-07-14 18:22:00,81.9,59.1,29.82,SE,132,6.0,9.0,46,0.00,,,0.00,229,Wunderground v.1.15,2013-07-15 01:22:00,
2013-07-14 18:28:00,81.2,59.6,29.82,WSW,240,4.0,9.0,48,0.00,,,0.00,209,Wunderground v.1.15,2013-07-15 01:28:00,
2013-07-14 18:33:00,80.6,60.2,29.82,WNW,300,4.0,13.0,50,0.00,,,0.00,190,Wunderground v.1.15,2013-07-15 01:33:00,
2013-07-14 18:39:00,80.5,61.3,29.82,SW,225,5.0,5.0,52,0.00,,,0.00,169,Wunderground v.1.15,2013-07-15 01:39:00,
2013-07-14 18:45:00,80.0,60.8,29.82,SSW,208,3.0,5.0,52,0.00,,,0.00,148,Wunderground v.1.15,2013-07-15 01:45:00,
2013-07-14 18:50:00,79.4,60.8,29.82,West,265,2.0,2.0,53,0.00,,,0.00,130,Wunderground v.1.15,2013-07-15 01:50:00,
2013-07-14 18:56:00,79.0,61.5,29.82,WSW,244,3.0,10.0,55,0.00,,,0.00,111,Wunderground v.1.15,2013-07-15 01:56:00,
2013-07-14 19:01:00,78.9,61.4,29.82,West,260,3.0,6.0,55,0.00,,,0.00,95,Wunderground v.1.15,2013-07-15 02:01:00,
2013-07-14 19:07:00,78.4,60.9,29.82,West,275,4.0,8.0,55,0.00,,,0.00,81,Wunderground v.1.15,2013-07-15 02:07:00,
2013-07-14 19:12:00,78.0,61.0,29.82,SW,219,5.0,8.0,56,0.00,,,0.00,67,Wunderground v.1.15,2013-07-15 02:12:00,
2013-07-14 19:17:00,77.6,60.7,29.82,SW,216,6.0,8.0,56,0.00,,,0.00,54,Wunderground v.1.15,2013-07-15 02:17:00,
2013-07-14 19:23:00,77.1,60.7,29.82,SSW,212,5.0,7.0,57,0.00,,,0.00,42,Wunderground v.1.15,2013-07-15 02:23:00,
2013-07-14 19:29:00,77.1,61.2,29.82,SW,236,3.0,6.0,58,0.00,,,0.00,30,Wunderground v.1.15,2013-07-15 02:29:00,
2013-07-14 19:35:00,76.7,61.3,29.82,West,259,2.0,6.0,59,0.00,,,0.00,19,Wunderground v.1.15,2013-07-15 02:35:00,
2013-07-14 19:40:00,76.5,61.6,29.82,West,281,1.0,2.0,60,0.00,,,0.00,14,Wunderground v.1.15,2013-07-15 02:40:00,
2013-07-14 19:46:00,76.3,61.4,29.82,SW,217,1.0,4.0,60,0.00,,,0.00,11,Wunderground v.1.15,2013-07-15 02:46:00,
2013-07-14 19:52:00,75.7,61.3,29.83,WSW,248,2.0,5.0,61,0.00,,,0.00,9,Wunderground v.1.15,2013-07-15 02:52:00,
2013-07-14 19:58:00,75.4,61.5,29.83,West,265,2.0,5.0,62,0.00,,,0.00,5,Wunderground v.1.15,2013-07-15 02:58:00,
2013-07-14 20:04:00,75.1,61.6,29.83,WSW,237,1.0,3.0,63,0.00,,,0.00,0,Wunderground v.1.15,2013-07-15 03:04:00,
2013-07-14 20:10:00,75.1,62.1,29.83,SE,144,2.0,2.0,64,0.00,,,0.00,0,Wunderground v.1.15,2013-07-15 03:10:00,
2013-07-14 20:15:00,74.7,62.1,29.83,SW,220,1.0,2.0,65,0.00,,,0.00,0,Wunderground v.1.15,2013-07-15 03:15:00,
2013-07-14 20:21:00,74.4,62.3,29.83,North,355,1.0,1.0,66,0.00,,,0.00,0,Wunderground v.1.15,2013-07-15 03:21:00,
2013-07-14 20:27:00,74.1,62.0,29.83,SSW,202,1.0,4.0,66,0.00,,,0.00,0,Wunderground v.1.15,2013-07-15 03:27:00,
2013-07-14 20:33:00,74.0,62.3,29.83,SSW,211,1.0,1.0,67,0.00,,,0.00,0,Wunderground v.1.15,2013-07-15 03:33:00,
2013-07-14 20:38:00,73.7,62.1,29.83,SSW,201,1.0,4.0,67,0.00,,,0.00,0,Wunderground v.1.15,2013-07-15 03:38:00,
2013-07-14 20:44:00,73.4,62.2,29.83,SW,236,2.0,5.0,68,0.00,,,0.00,0,Wunderground v.1.15,2013-07-15 03:44:00,
2013-07-14 20:50:00,73.2,62.0,29.83,SW,232,1.0,2.0,68,0.00,,,0.00,0,Wunderground v.1.15,2013-07-15 03:50:00,
2013-07-14 20:56:00,73.0,61.8,29.84,SSE,163,1.0,2.0,68,0.00,,,0.00,0,Wunderground v.1.15,2013-07-15 03:56:00,
2013-07-14 21:01:00,73.0,62.2,29.84,SSE,155,0.0,0.0,69,0.00,,,0.00,0,Wunderground v.1.15,2013-07-15 04:01:00,
2013-07-14 21:02:00,73.0,62.2,29.84,SSE,155,0.0,0.0,69,0.00,,,0.00,0,Wunderground v.1.15,2013-07-15 04:02:00,
2013-07-14 21:04:00,73.0,62.2,29.84,SW,220,0.0,0.0,69,0.00,,,0.00,0,Wunderground v.1.15,2013-07-15 04:04:00,
2013-07-14 21:05:00,73.0,62.2,29.84,SW,220,0.0,0.0,69,0.00,,,0.00,0,Wunderground v.1.15,2013-07-15 04:05:00,
2013-07-14 21:09:00,73.1,62.3,29.84,SW,220,0.0,0.0,69,0.00,,,0.00,0,Wunderground v.1.15,2013-07-15 04:09:00,
2013-07-14 21:15:00,72.6,61.8,29.84,SW,220,0.0,0.0,69,0.00,,,0.00,0,Wunderground v.1.15,2013-07-15 04:15:00,
2013-07-14 21:20:00,72.3,62.0,29.84,SW,220,0.0,0.0,70,0.00,,,0.00,0,Wunderground v.1.15,2013-07-15 04:20:00,
2013-07-14 21:25:00,72.1,61.8,29.84,SW,220,0.0,2.0,70,0.00,,,0.00,0,Wunderground v.1.15,2013-07-15 04:25:00,
2013-07-14 21:30:00,72.1,62.2,29.84,SW,219,0.0,0.0,71,0.00,,,0.00,0,Wunderground v.1.15,2013-07-15 04:30:00,
2013-07-14 21:35:00,72.2,62.7,29.84,SW,219,0.0,0.0,72,0.00,,,0.00,0,Wunderground v.1.15,2013-07-15 04:35:00,
2013-07-14 21:41:00,72.1,62.2,29.85,SW,219,0.0,0.0,71,0.00,,,0.00,0,Wunderground v.1.15,2013-07-15 04:41:00,
2013-07-14 21:47:00,71.7,62.2,29.85,SW,219,0.0,0.0,72,0.00,,,0.00,0,Wunderground v.1.15,2013-07-15 04:47:00,
2013-07-14 21:53:00,71.2,62.1,29.85,SW,219,0.0,0.0,73,0.00,,,0.00,0,Wunderground v.1.15,2013-07-15 04:53:00,
2013-07-14 21:58:00,71.1,62.0,29.85,SW,219,0.0,1.0,73,0.00,,,0.00,0,Wunderground v.1.15,2013-07-15 04:58:00,
2013-07-14 22:03:00,71.1,62.0,29.85,SW,223,0.0,0.0,73,0.00,,,0.00,0,Wunderground v.1.15,2013-07-15 05:03:00,
2013-07-14 22:09:00,70.9,61.8,29.85,SW,223,0.0,0.0,73,0.00,,,0.00,0,Wunderground v.1.15,2013-07-15 05:09:00,
2013-07-14 22:15:00,70.7,62.0,29.85,SW,223,0.0,2.0,74,0.00,,,0.00,0,Wunderground v.1.15,2013-07-15 05:15:00,
2013-07-14 22:21:00,70.6,61.9,29.85,SW,223,0.0,0.0,74,0.00,,,0.00,0,Wunderground v.1.15,2013-07-15 05:21:00,
2013-07-14 22:27:00,70.3,61.2,29.85,SW,219,0.0,0.0,73,0.00,,,0.00,0,Wunderground v.1.15,2013-07-15 05:27:00,
2013-07-14 22:33:00,70.0,60.6,29.85,SW,219,0.0,0.0,72,0.00,,,0.00,0,Wunderground v.1.15,2013-07-15 05:33:00,
2013-07-14 22:38:00,69.4,60.4,29.85,SW,219,0.0,0.0,73,0.00,,,0.00,0,Wunderground v.1.15,2013-07-15 05:38:00,
2013-07-14 22:44:00,68.9,60.6,29.85,SW,219,0.0,0.0,75,0.00,,,0.00,0,Wunderground v.1.15,2013-07-15 05:44:00,
2013-07-14 22:50:00,68.6,60.0,29.85,SSE,165,0.0,0.0,74,0.00,,,0.00,0,Wunderground v.1.15,2013-07-15 05:50:00,
2013-07-14 22:56:00,68.4,60.2,29.85,SSE,157,0.0,0.0,75,0.00,,,0.00,0,Wunderground v.1.15,2013-07-15 05:56:00,
2013-07-14 23:02:00,68.4,60.5,29.85,SSE,151,0.0,0.0,76,0.00,,,0.00,0,Wunderground v.1.15,2013-07-15 06:02:00,
2013-07-14 23:08:00,68.1,60.2,29.85,SSE,151,0.0,0.0,76,0.00,,,0.00,0,Wunderground v.1.15,2013-07-15 06:08:00,
2013-07-14 23:14:00,68.0,60.2,29.85,SSE,151,0.0,0.0,76,0.00,,,0.00,0,Wunderground v.1.15,2013-07-15 06:14:00,
2013-07-14 23:19:00,68.2,60.7,29.85,SSE,151,0.0,0.0,77,0.00,,,0.00,0,Wunderground v.1.15,2013-07-15 06:19:00,
2013-07-14 23:25:00,68.0,60.5,29.85,SSE,151,0.0,0.0,77,0.00,,,0.00,0,Wunderground v.1.15,2013-07-15 06:25:00,
2013-07-14 23:31:00,68.2,61.4,29.86,SW,214,0.0,0.0,79,0.00,,,0.00,0,Wunderground v.1.15,2013-07-15 06:31:00,
2013-07-14 23:37:00,68.0,61.6,29.85,SW,214,0.0,0.0,80,0.00,,,0.00,0,Wunderground v.1.15,2013-07-15 06:37:00,
2013-07-14 23:43:00,67.3,59.8,29.86,SE,134,0.0,1.0,77,0.00,,,0.00,0,Wunderground v.1.15,2013-07-15 06:43:00,
2013-07-14 23:49:00,67.0,59.9,29.86,SE,134,0.0,0.0,78,0.00,,,0.00,0,Wunderground v.1.15,2013-07-15 06:49:00,
2013-07-14 23:55:00,66.4,59.7,29.86,SE,134,0.0,1.0,79,0.00,,,0.00,0,Wunderground v.1.15,2013-07-15 06:55:00,